Location: Peebles
(55.6412°N, 3.1714°W)
Time: 23:33:36
(UTC+01:00)

CENTAUR R/B - Pass Details

Date: 27 January 2022
Orbit: 716 x 1471 km, 63.4° (Epoch: 08 May)

Event Time Altitude Azimuth Distance (km) Brightness Sun altitude
Rises 19:55:42 0° 289° (WNW) 3,800 6.8 -27.7°
Reaches altitude 10° 19:58:16 10° 295° (WNW) 2,952 5.9 -28.0°
Maximum altitude 20:05:13 50° 10° (N) 1,551 3.4 -29.0°
Enters shadow 20:06:39 45° 41° (NE) 1,671 3.4 -29.2°
